User: anonymous   Login
Location: Caltech
(34.1382°N, 118.1253°W)
Time: 05:05:50
(UTC-07:00)
Language:

Iridium 70 - Orbit

View from above orbital plane
View from above orbital plane
View from above satellite
View from above satellite

Ground track
Ground track

The orbit data is extracted from the following two-line orbital elements,

1 25342U 98032A   16119.31631064  .00000245  00000-0  80494-4 0  9990
2 25342  86.4004  37.6652 0002077  81.3618  34.1811 14.34214084939631
Epoch (UTC): 28 April 2016 07:35:29
Eccentricity: 0.0002077
inclination: 86.4004°
perigee height: 776 km
apogee height: 779 km
right ascension of ascending node: 37.6652°
argument of perigee: 81.3618°
revolutions per day: 14.34214084
mean anomaly at epoch: 34.1811°
orbit number at epoch: 93963

The dashed part of the orbit path shows where the satellite is in the earth's shadow,  

DLR